Location: Béaulencourt
(50.0796°N, 2.8795°E)
Time: 08:53:22
(UTC+00:00)

Meteor 1-24 Rocket - Pass Details

Date: 20 January 2026
Orbit: 790 x 925 km, 81.3° (Epoch: 18 February)

Event Time Altitude Azimuth Distance (km) Brightness Sun altitude
Rises 05:26:55 0° 349° (N) 3,579 6.8 -20.4°
Reaches altitude 10° 05:29:26 10° 353° (N) 2,637 6.1 -20.0°
Maximum altitude 05:35:27 64° 74° (ENE) 1,024 4.3 -19.1°
Drops below altitude 10° 05:41:22 10° 156° (SSE) 2,597 6.7 -18.1°
Sets 05:43:50 0° 159° (SSE) 3,522 7.4 -17.7°
